TimeMDT,TemperatureF,Dew PointF,Humidity,Sea Level PressureIn,VisibilityMPH,Wind Direction,Wind SpeedMPH,Gust SpeedMPH,PrecipitationIn,Events,Conditions,WindDirDegrees,DateUTC
12:53 AM,77.0,55.9,48,29.94,10.0,South,12.7,21.9,N/A,,Clear,180,2013-08-26 06:53:00
1:53 AM,75.9,57.0,52,29.93,10.0,South,11.5,-,N/A,,Clear,190,2013-08-26 07:53:00
2:53 AM,75.0,57.0,53,29.93,10.0,South,13.8,19.6,N/A,,Clear,190,2013-08-26 08:53:00
3:53 AM,73.9,57.9,57,29.94,10.0,SSW,12.7,-,N/A,,Clear,200,2013-08-26 09:53:00
4:53 AM,72.0,57.9,61,29.93,10.0,SSW,12.7,-,N/A,,Clear,210,2013-08-26 10:53:00
5:53 AM,69.1,57.0,65,29.96,10.0,SSW,8.1,-,N/A,,Clear,210,2013-08-26 11:53:00
6:53 AM,70.0,57.9,65,29.97,10.0,SSW,6.9,-,N/A,,Clear,210,2013-08-26 12:53:00
7:53 AM,73.9,57.9,57,29.97,10.0,SW,8.1,-,N/A,,Clear,220,2013-08-26 13:53:00
8:53 AM,80.1,57.0,45,29.96,10.0,SW,12.7,20.7,N/A,,Clear,230,2013-08-26 14:53:00
9:53 AM,87.1,57.0,36,29.96,10.0,SW,10.4,-,N/A,,Clear,220,2013-08-26 15:53:00
10:53 AM,91.0,57.0,32,29.95,10.0,SW,6.9,-,N/A,,Clear,220,2013-08-26 16:53:00
11:53 AM,93.9,57.0,29,29.94,10.0,SW,9.2,-,N/A,,Clear,220,2013-08-26 17:53:00
12:53 PM,97.0,55.9,25,29.91,10.0,WSW,10.4,-,N/A,,Clear,250,2013-08-26 18:53:00
1:53 PM,99.0,54.0,22,29.89,10.0,WSW,8.1,17.3,N/A,,Clear,250,2013-08-26 19:53:00
2:53 PM,100.0,54.0,21,29.87,10.0,West,8.1,-,N/A,,Clear,270,2013-08-26 20:53:00
3:53 PM,100.9,50.0,18,29.85,10.0,SSW,5.8,-,N/A,,Partly Cloudy,210,2013-08-26 21:53:00
4:53 PM,99.0,51.1,20,29.85,10.0,SSW,10.4,-,N/A,,Scattered Clouds,200,2013-08-26 22:53:00
5:53 PM,95.0,50.0,22,29.86,10.0,South,10.4,17.3,N/A,,Partly Cloudy,190,2013-08-26 23:53:00
6:53 PM,93.9,52.0,24,29.86,10.0,South,13.8,20.7,N/A,,Clear,170,2013-08-27 00:53:00
7:53 PM,88.0,53.1,30,29.87,10.0,South,11.5,-,N/A,,Clear,170,2013-08-27 01:53:00
8:53 PM,84.9,54.0,34,29.88,10.0,South,9.2,-,N/A,,Clear,180,2013-08-27 02:53:00
9:53 PM,82.0,55.9,41,29.88,10.0,South,10.4,-,N/A,,Clear,180,2013-08-27 03:53:00
10:53 PM,81.0,55.9,42,29.88,10.0,South,11.5,-,N/A,,Clear,190,2013-08-27 04:53:00
11:53 PM,79.0,55.9,45,29.88,10.0,South,12.7,-,N/A,,Clear,190,2013-08-27 05:53:00